TimeCDT,TemperatureF,Dew PointF,Humidity,Sea Level PressureIn,VisibilityMPH,Wind Direction,Wind SpeedMPH,Gust SpeedMPH,PrecipitationIn,Events,Conditions,WindDirDegrees,DateUTC
12:15 AM,61.5,59.4,93,29.82,7.0,NE,8.1,-,N/A,Thunderstorm,Overcast,50,2013-05-27 05:15:00
12:35 AM,61.7,59.4,92,29.84,7.0,NE,15.0,-,N/A,,Overcast,40,2013-05-27 05:35:00
12:55 AM,61.2,59.0,93,29.83,7.0,NE,10.4,16.1,N/A,,Overcast,40,2013-05-27 05:55:00
1:15 AM,61.2,59.0,93,29.84,10.0,NE,9.2,-,N/A,,Overcast,50,2013-05-27 06:15:00
1:35 AM,60.8,58.3,91,29.85,10.0,NE,15.0,-,N/A,,Overcast,50,2013-05-27 06:35:00
1:55 AM,60.4,57.7,91,29.84,10.0,NE,11.5,-,N/A,,Overcast,40,2013-05-27 06:55:00
2:15 AM,60.1,57.4,91,29.84,10.0,NNE,10.4,-,N/A,,Overcast,30,2013-05-27 07:15:00
2:35 AM,60.1,57.7,92,29.84,10.0,NNE,10.4,-,N/A,,Overcast,30,2013-05-27 07:35:00
2:55 AM,59.4,57.0,92,29.85,7.0,NNE,6.9,-,N/A,,Overcast,20,2013-05-27 07:55:00
3:15 AM,58.6,56.7,93,29.83,7.0,North,6.9,-,N/A,,Overcast,10,2013-05-27 08:15:00
3:35 AM,58.1,56.3,94,29.83,4.0,NNE,6.9,-,N/A,,Overcast,20,2013-05-27 08:35:00
3:55 AM,57.9,56.3,94,29.82,1.8,North,5.8,-,N/A,,Overcast,10,2013-05-27 08:55:00
4:15 AM,57.4,55.9,95,29.84,0.5,NE,6.9,-,N/A,Fog,Fog,40,2013-05-27 09:15:00
4:35 AM,57.2,55.8,95,29.83,0.5,ENE,6.9,-,N/A,Fog,Fog,60,2013-05-27 09:35:00
4:55 AM,56.7,55.4,96,29.83,0.5,ENE,6.9,-,N/A,Fog,Fog,70,2013-05-27 09:55:00
5:15 AM,56.8,55.4,95,29.81,0.2,East,9.2,-,N/A,Fog,Fog,80,2013-05-27 10:15:00
5:35 AM,56.8,55.6,96,29.80,0.5,East,11.5,-,N/A,Fog,Fog,90,2013-05-27 10:35:00
5:55 AM,57.2,55.6,94,29.81,0.8,East,9.2,-,N/A,,Overcast,80,2013-05-27 10:55:00
6:15 AM,57.2,55.6,94,29.82,0.8,ENE,9.2,-,N/A,,Overcast,70,2013-05-27 11:15:00
6:35 AM,57.0,55.6,95,29.82,0.5,ENE,13.8,17.3,N/A,Rain,Light Rain,60,2013-05-27 11:35:00
6:55 AM,56.8,55.6,96,29.85,0.2,NE,12.7,-,N/A,,Heavy Drizzle,40,2013-05-27 11:55:00
7:15 AM,56.8,55.6,96,29.85,0.2,NE,10.4,-,N/A,,Drizzle,40,2013-05-27 12:15:00
7:35 AM,56.8,55.6,96,29.87,3.0,ENE,9.2,-,N/A,,Overcast,60,2013-05-27 12:35:00
7:55 AM,57.2,55.9,96,29.87,7.0,ENE,9.2,-,N/A,,Overcast,60,2013-05-27 12:55:00
8:15 AM,57.6,56.3,96,29.85,10.0,East,6.9,-,N/A,,Overcast,80,2013-05-27 13:15:00
8:35 AM,58.6,56.1,91,29.84,10.0,East,11.5,-,N/A,,Scattered Clouds,100,2013-05-27 13:35:00
8:55 AM,59.2,55.4,87,29.82,10.0,East,10.4,-,N/A,,Clear,100,2013-05-27 13:55:00
9:15 AM,59.9,55.4,85,29.82,10.0,ESE,13.8,-,N/A,,Clear,120,2013-05-27 14:15:00
9:35 AM,60.4,54.9,82,29.81,10.0,SE,12.7,-,N/A,,Clear,130,2013-05-27 14:35:00
9:55 AM,63.1,55.6,76,29.81,10.0,SSE,11.5,-,N/A,,Clear,150,2013-05-27 14:55:00
10:15 AM,63.7,55.4,74,29.81,10.0,SE,10.4,-,N/A,,Clear,140,2013-05-27 15:15:00
10:35 AM,64.0,55.4,73,29.80,10.0,ESE,10.4,-,N/A,,Clear,120,2013-05-27 15:35:00
10:55 AM,66.9,55.4,66,29.82,10.0,SSW,6.9,11.5,N/A,,Scattered Clouds,200,2013-05-27 15:55:00
11:15 AM,65.5,53.6,65,29.79,10.0,SE,15.0,-,N/A,,Scattered Clouds,130,2013-05-27 16:15:00
11:35 AM,65.8,53.6,65,29.78,10.0,SE,12.7,-,N/A,,Scattered Clouds,130,2013-05-27 16:35:00
11:55 AM,67.1,52.7,60,29.80,10.0,SSE,8.1,-,N/A,,Clear,160,2013-05-27 16:55:00
12:15 PM,68.0,53.1,59,29.80,10.0,SE,5.8,-,N/A,,Scattered Clouds,130,2013-05-27 17:15:00
12:35 PM,69.3,53.2,57,29.81,10.0,ESE,3.5,-,N/A,,Scattered Clouds,120,2013-05-27 17:35:00
12:55 PM,69.8,52.5,54,29.80,10.0,ESE,4.6,-,N/A,,Scattered Clouds,110,2013-05-27 17:55:00
1:15 PM,70.7,53.2,54,29.80,10.0,ENE,4.6,-,N/A,,Scattered Clouds,70,2013-05-27 18:15:00
1:35 PM,71.6,54.1,54,29.80,10.0,ENE,8.1,-,N/A,,Clear,70,2013-05-27 18:35:00
1:55 PM,73.6,54.7,51,29.79,10.0,ENE,8.1,-,N/A,,Clear,60,2013-05-27 18:55:00
2:15 PM,73.6,55.2,53,29.78,10.0,ENE,9.2,-,N/A,,Clear,70,2013-05-27 19:15:00
2:35 PM,75.6,55.6,50,29.77,10.0,ENE,10.4,-,N/A,,Clear,60,2013-05-27 19:35:00
2:55 PM,75.7,56.8,52,29.76,10.0,ENE,8.1,-,N/A,,Scattered Clouds,70,2013-05-27 19:55:00
3:15 PM,77.0,56.7,49,29.76,10.0,ESE,9.2,17.3,N/A,,Mostly Cloudy,110,2013-05-27 20:15:00
3:35 PM,78.8,54.9,44,29.75,10.0,SE,6.9,17.3,N/A,,Mostly Cloudy,140,2013-05-27 20:35:00
3:55 PM,77.7,56.8,48,29.74,10.0,SSE,5.8,-,N/A,,Scattered Clouds,150,2013-05-27 20:55:00
4:15 PM,77.0,56.7,49,29.74,10.0,ESE,10.4,-,N/A,,Clear,120,2013-05-27 21:15:00
4:35 PM,77.2,57.2,50,29.72,10.0,SE,9.2,-,N/A,,Clear,130,2013-05-27 21:35:00
4:55 PM,77.5,57.4,50,29.71,10.0,ESE,11.5,-,N/A,,Clear,120,2013-05-27 21:55:00
5:15 PM,79.5,55.8,44,29.70,10.0,South,15.0,18.4,N/A,,Scattered Clouds,170,2013-05-27 22:15:00
5:35 PM,78.8,55.8,45,29.69,10.0,SSE,13.8,-,N/A,,Scattered Clouds,160,2013-05-27 22:35:00
5:55 PM,77.2,57.0,50,29.68,10.0,SSE,15.0,-,N/A,,Clear,150,2013-05-27 22:55:00
6:15 PM,76.8,57.2,51,29.68,10.0,SE,12.7,-,N/A,,Clear,140,2013-05-27 23:15:00
6:35 PM,77.0,56.8,50,29.67,10.0,SE,9.2,-,N/A,,Clear,140,2013-05-27 23:35:00
6:55 PM,77.4,57.4,50,29.64,10.0,SE,11.5,-,N/A,,Clear,130,2013-05-27 23:55:00
7:15 PM,75.7,58.1,54,29.64,10.0,SE,6.9,-,N/A,,Clear,140,2013-05-28 00:15:00
7:35 PM,75.2,58.5,56,29.65,10.0,SE,10.4,-,N/A,,Clear,140,2013-05-28 00:35:00
7:55 PM,73.9,58.3,58,29.65,10.0,ESE,12.7,-,N/A,,Clear,120,2013-05-28 00:55:00
8:15 PM,73.4,59.0,61,29.69,10.0,SE,4.6,-,N/A,,Clear,140,2013-05-28 01:15:00
8:35 PM,71.8,59.9,66,29.70,10.0,WSW,5.8,-,N/A,,Scattered Clouds,240,2013-05-28 01:35:00
8:55 PM,71.6,59.9,66,29.69,10.0,South,5.8,-,N/A,,Mostly Cloudy,180,2013-05-28 01:55:00
9:15 PM,70.0,60.6,72,29.69,10.0,South,6.9,-,N/A,,Mostly Cloudy,180,2013-05-28 02:15:00
9:35 PM,69.8,60.1,71,29.69,10.0,SSE,5.8,-,N/A,Thunderstorm,Mostly Cloudy,160,2013-05-28 02:35:00
9:55 PM,69.4,59.9,72,29.69,10.0,SE,6.9,-,N/A,Thunderstorm,Scattered Clouds,130,2013-05-28 02:55:00
10:15 PM,70.3,59.9,69,29.70,10.0,SE,6.9,-,N/A,,Mostly Cloudy,140,2013-05-28 03:15:00
10:35 PM,67.6,55.2,64,29.76,10.0,WSW,25.3,31.1,N/A,Rain-Thunderstorm,Thunderstorms and Rain,250,2013-05-28 03:35:00
10:55 PM,58.3,54.5,87,29.76,2.0,WNW,11.5,-,0.45,Rain-Thunderstorm,Heavy Thunderstorms and Rain,290,2013-05-28 03:55:00
11:15 PM,58.5,55.4,90,29.77,7.0,North,18.4,28.8,0.06,Rain-Thunderstorm,Light Thunderstorms and Rain,360,2013-05-28 04:15:00
11:35 PM,59.0,55.0,87,29.76,10.0,NNW,15.0,26.5,0.08,Rain-Thunderstorm,Light Thunderstorms and Rain,330,2013-05-28 04:35:00
11:55 PM,59.0,55.8,89,29.76,10.0,NNW,20.7,27.6,0.08,Rain-Thunderstorm,Light Thunderstorms and Rain,340,2013-05-28 04:55:00